User: anonymous   Login
Location: Tyler Bend Campground
(35.9875°N, 92.7606°W)
Time: 10:20:11
(UTC-06:00)
Language:

CZ-2C R/B - Orbit

View from above orbital plane
View from above orbital plane
View from above satellite
View from above satellite

Ground track
Ground track

The orbit data is extracted from the following two-line orbital elements,

1 36089U 09061B   15028.73846889  .00000273  00000-0  79870-4 0  5433
2 36089 098.0837 057.6497 0082220 204.6836 293.9620 14.49346554275611
Epoch (UTC): 28 January 2015 17:43:23
Eccentricity: 0.0082220
inclination: 98.0837°
perigee height: 669 km
apogee height: 786 km
right ascension of ascending node: 57.6497°
argument of perigee: 204.6836°
revolutions per day: 14.49346554
mean anomaly at epoch: 293.9620°
orbit number at epoch: 27561

The dashed part of the orbit path shows where the satellite is in the earth's shadow,  

DLR